User: anonymous   Login
Location: Fauquembergues
(50.6005°N, 2.0987°E)
Time: 12:59:23
(UTC+00:00)
Language:

Meteor 1-4 Rocket - Orbit

View from above orbital plane
View from above orbital plane
View from above satellite
View from above satellite

Ground track
Ground track

The orbit data is extracted from the following two-line orbital elements,

1  4394U 70037B   20262.82854271 +.00000635 +00000-0 +20271-4 0  9996
2  4394 081.2411 055.6871 0038959 016.9288 343.3238 15.30070649747042
Epoch (UTC): 18 September 2020 19:53:06
Eccentricity: 0.0038959
inclination: 81.2411°
perigee height: 449 km
apogee height: 502 km
right ascension of ascending node: 55.6871°
argument of perigee: 16.9288°
revolutions per day: 15.30070649
mean anomaly at epoch: 343.3238°
orbit number at epoch: 74704

The dashed part of the orbit path shows where the satellite is in the earth's shadow,  

DLR